DLH14E EDDB-LZIB

Flight info

Callsign DLH14E
Flight time N/A
Altitude 35000
Route ARSAP4B/06L ARSAP DCT OLUMA DCT KULUV DCT DESEN DCT UPLAV/N0284F090 P10 BERVA
Aircraft A343/H-SDE2E3FGHIJ4J5M1RWXY/LB1D1

Departure

Time 2026-05-05 13:54
Airport Berlin Brandenburg Airport (EDDB)

Arrival

Time N/A
Airport M. R. Štefánik Airport (LZIB)
Time Latitude Longitude Altitude Speed Heading
2026-05-05 13:25 52.36540 13.50486 159 ft 0 kts 69°
2026-05-05 13:40 52.36538 13.50481 159 ft 3 kts 69°
2026-05-05 13:40 52.36530 13.50449 159 ft 3 kts 68°
2026-05-05 13:40 52.36523 13.50416 159 ft 4 kts 63°
2026-05-05 13:40 52.36505 13.50390 159 ft 4 kts 24°
2026-05-05 13:41 52.36482 13.50377 159 ft 4 kts 359°
2026-05-05 13:41 52.36457 13.50388 159 ft 4 kts 330°
2026-05-05 13:41 52.36442 13.50401 159 ft 0 kts 339°
2026-05-05 13:48 52.36446 13.50399 159 ft 2 kts 339°
2026-05-05 13:48 52.36475 13.50370 159 ft 11 kts 320°
2026-05-05 13:48 52.36531 13.50273 159 ft 12 kts 323°
2026-05-05 13:48 52.36609 13.50212 159 ft 13 kts 340°
2026-05-05 13:49 52.36695 13.50152 159 ft 12 kts 322°
2026-05-05 13:49 52.36751 13.50054 159 ft 12 kts 322°
2026-05-05 13:49 52.36785 13.49955 159 ft 9 kts 265°
2026-05-05 13:49 52.36760 13.49866 159 ft 10 kts 246°
2026-05-05 13:50 52.36731 13.49749 159 ft 16 kts 248°
2026-05-05 13:50 52.36688 13.49572 159 ft 20 kts 249°
2026-05-05 13:50 52.36640 13.49370 159 ft 21 kts 249°
2026-05-05 13:50 52.36586 13.49140 159 ft 23 kts 249°
2026-05-05 13:51 52.36532 13.48912 161 ft 23 kts 249°
2026-05-05 13:51 52.36480 13.48692 159 ft 22 kts 248°
2026-05-05 13:51 52.36431 13.48489 159 ft 20 kts 249°
2026-05-05 13:51 52.36402 13.48345 159 ft 14 kts 263°
2026-05-05 13:52 52.36429 13.48267 159 ft 10 kts 329°
2026-05-05 13:52 52.36509 13.48214 159 ft 15 kts 339°
2026-05-05 13:52 52.36605 13.48155 159 ft 16 kts 341°
2026-05-05 13:52 52.36698 13.48167 159 ft 8 kts 44°
2026-05-05 13:53 52.36716 13.48265 159 ft 14 kts 69°
2026-05-05 13:53 52.36757 13.48432 159 ft 23 kts 68°
2026-05-05 13:53 52.36877 13.48936 159 ft 79 kts 69°
2026-05-05 13:53 52.37151 13.50099 159 ft 137 kts 69°
2026-05-05 13:54 52.37553 13.51779 242 ft 175 kts 67°
2026-05-05 13:54 52.38016 13.53669 824 ft 185 kts 67°
2026-05-05 13:54 52.38512 13.55774 1370 ft 210 kts 68°
2026-05-05 13:54 52.39070 13.58167 1986 ft 236 kts 67°
2026-05-05 13:55 52.39677 13.60759 2913 ft 248 kts 68°
2026-05-05 13:55 52.40310 13.63457 3859 ft 260 kts 68°
2026-05-05 13:55 52.40975 13.66281 4619 ft 271 kts 68°
2026-05-05 13:55 52.41617 13.69009 5484 ft 278 kts 68°
2026-05-05 13:56 52.42313 13.71969 6587 ft 281 kts 68°
2026-05-05 13:56 52.43024 13.74996 7386 ft 288 kts 69°
2026-05-05 13:56 52.43739 13.78041 7836 ft 291 kts 69°
2026-05-05 13:56 52.44500 13.81132 7893 ft 293 kts 65°
2026-05-05 13:57 52.45380 13.84137 7860 ft 293 kts 63°
2026-05-05 13:57 52.46084 13.87261 7858 ft 293 kts 78°
2026-05-05 13:57 52.46144 13.90591 7851 ft 292 kts 102°
2026-05-05 13:57 52.45498 13.93714 8050 ft 289 kts 115°
2026-05-05 13:58 52.44661 13.96734 8597 ft 294 kts 116°
2026-05-05 13:58 52.43786 13.99794 9361 ft 297 kts 117°
2026-05-05 13:58 52.42903 14.02862 9766 ft 297 kts 117°
2026-05-05 13:58 52.42016 14.05931 9920 ft 300 kts 118°
2026-05-05 13:59 52.40148 14.12353 10459 ft 335 kts 118°
2026-05-05 13:59 52.39119 14.15881 11030 ft 348 kts 118°
2026-05-05 14:00 52.36991 14.23182 12546 ft 361 kts 118°
2026-05-05 14:00 52.36267 14.25658 13077 ft 365 kts 118°
2026-05-05 14:00 52.34788 14.30708 14115 ft 372 kts 118°
2026-05-05 14:00 52.33660 14.34555 14844 ft 377 kts 119°
2026-05-05 14:01 52.32514 14.38451 15462 ft 386 kts 119°
2026-05-05 14:01 52.31319 14.42502 15801 ft 403 kts 119°
2026-05-05 14:01 52.30087 14.46674 16321 ft 413 kts 118°
2026-05-05 14:01 52.28829 14.50937 16962 ft 420 kts 119°
2026-05-05 14:02 52.27563 14.55218 17618 ft 426 kts 119°
2026-05-05 14:02 52.26263 14.59602 18273 ft 431 kts 119°
2026-05-05 14:02 52.24948 14.64031 18877 ft 436 kts 119°
2026-05-05 14:02 52.23614 14.68518 19512 ft 439 kts 119°
2026-05-05 14:03 52.22272 14.73022 20125 ft 443 kts 119°
2026-05-05 14:03 52.20895 14.77546 20763 ft 446 kts 120°
2026-05-05 14:03 52.19479 14.82077 21376 ft 450 kts 121°
2026-05-05 14:03 52.18041 14.86632 21992 ft 453 kts 121°
2026-05-05 14:04 52.16594 14.91206 22562 ft 456 kts 121°
2026-05-05 14:04 52.15150 14.95771 23087 ft 461 kts 121°
2026-05-05 14:04 52.13679 15.00427 23600 ft 465 kts 121°
2026-05-05 14:04 52.12198 15.05118 24026 ft 469 kts 121°
2026-05-05 14:05 52.10705 15.09849 24456 ft 472 kts 121°
2026-05-05 14:05 52.09187 15.14652 24888 ft 476 kts 121°
2026-05-05 14:05 52.07666 15.19455 25311 ft 479 kts 121°
2026-05-05 14:05 52.06131 15.24298 25730 ft 483 kts 121°
2026-05-05 14:06 52.04584 15.29165 26145 ft 486 kts 121°
2026-05-05 14:06 52.03022 15.34070 26538 ft 489 kts 121°
2026-05-05 14:06 52.01472 15.38927 26906 ft 493 kts 121°
2026-05-05 14:06 51.99886 15.43885 27259 ft 496 kts 121°
2026-05-05 14:07 51.98285 15.48880 27608 ft 499 kts 121°
2026-05-05 14:07 51.96677 15.53889 28044 ft 501 kts 121°
2026-05-05 14:07 51.95061 15.58912 28410 ft 504 kts 121°
2026-05-05 14:07 51.93431 15.63968 28727 ft 507 kts 121°
2026-05-05 14:08 51.91794 15.69037 29085 ft 509 kts 121°
2026-05-05 14:08 51.90124 15.74099 29584 ft 507 kts 124°
2026-05-05 14:08 51.88234 15.78907 30023 ft 505 kts 127°
2026-05-05 14:08 51.86293 15.83622 30476 ft 502 kts 127°
2026-05-05 14:09 51.84333 15.88290 30877 ft 502 kts 128°
2026-05-05 14:09 51.82351 15.92953 31210 ft 503 kts 128°
2026-05-05 14:09 51.80380 15.97566 31360 ft 508 kts 128°
2026-05-05 14:09 51.78362 16.02278 31538 ft 511 kts 128°
2026-05-05 14:10 51.76335 16.07008 31856 ft 513 kts 128°
2026-05-05 14:10 51.74306 16.11745 32167 ft 513 kts 128°
2026-05-05 14:10 51.72271 16.16492 32504 ft 513 kts 128°
2026-05-05 14:10 51.70241 16.21223 32820 ft 513 kts 128°
2026-05-05 14:11 51.68207 16.25957 33173 ft 513 kts 128°
2026-05-05 14:11 51.66036 16.30520 33485 ft 510 kts 136°
2026-05-05 14:11 51.63483 16.34435 33821 ft 503 kts 146°
2026-05-05 14:11 51.60610 16.37562 34125 ft 497 kts 153°
2026-05-05 14:12 51.57684 16.40320 34572 ft 492 kts 154°
2026-05-05 14:12 51.54688 16.42993 34773 ft 493 kts 155°
2026-05-05 14:12 51.48628 16.48229 34811 ft 493 kts 156°
2026-05-05 14:13 51.42599 16.53435 34800 ft 492 kts 155°
2026-05-05 14:13 51.36557 16.58688 34801 ft 492 kts 155°
2026-05-05 14:14 51.30564 16.63906 34794 ft 492 kts 155°
2026-05-05 14:14 51.24580 16.69105 34796 ft 492 kts 155°
2026-05-05 14:15 51.18581 16.74300 34796 ft 492 kts 155°
2026-05-05 14:15 51.12838 16.79256 34788 ft 492 kts 155°
2026-05-05 14:16 51.06864 16.84395 34788 ft 492 kts 155°
2026-05-05 14:16 51.00894 16.89517 34774 ft 492 kts 155°
2026-05-05 14:17 50.94957 16.94596 34775 ft 491 kts 155°
2026-05-05 14:17 50.88978 16.99695 34774 ft 491 kts 155°
2026-05-05 14:18 50.83057 17.04730 34774 ft 491 kts 155°
2026-05-05 14:18 50.77026 17.09844 34757 ft 491 kts 155°
2026-05-05 14:19 50.71041 17.14904 34772 ft 491 kts 155°
2026-05-05 14:19 50.65062 17.19944 34772 ft 491 kts 155°
2026-05-05 14:20 50.59031 17.25014 34774 ft 491 kts 155°
2026-05-05 14:20 50.52994 17.30073 34774 ft 491 kts 155°
2026-05-05 14:21 50.47981 17.34262 34774 ft 490 kts 155°
2026-05-05 14:21 50.41960 17.39282 34775 ft 488 kts 155°
2026-05-05 14:22 50.36023 17.44219 34702 ft 479 kts 155°
2026-05-05 14:22 50.33106 17.46643 34479 ft 470 kts 155°
2026-05-05 14:22 50.30218 17.49026 34236 ft 466 kts 155°
2026-05-05 14:23 50.27205 17.50849 34000 ft 464 kts 168°
2026-05-05 14:23 50.24025 17.51634 33779 ft 460 kts 178°
2026-05-05 14:23 50.20837 17.51900 33495 ft 460 kts 181°
2026-05-05 14:23 50.17628 17.51989 33335 ft 459 kts 182°
2026-05-05 14:24 50.14428 17.51997 33232 ft 460 kts 182°
2026-05-05 14:24 50.11260 17.51983 33089 ft 460 kts 182°
2026-05-05 14:24 50.08059 17.51974 32857 ft 461 kts 182°
2026-05-05 14:24 50.04840 17.51982 32638 ft 461 kts 182°
2026-05-05 14:25 50.01658 17.52002 32408 ft 462 kts 182°
2026-05-05 14:25 49.98478 17.52035 32165 ft 459 kts 182°
2026-05-05 14:25 49.95263 17.52074 31913 ft 462 kts 181°
2026-05-05 14:25 49.94228 17.52086 31824 ft 463 kts 181°